Date String (YYYY-MM-DD hh:mm:ss) UTC,Instrument flags,absolute air pressure of the measurement (hPa),sample flow rate (lpm),inlet stack bypass flow (lpm),air temperature of the measurement (°C),ambient temperature measured by the external sensor (°C),aerosol sample conditioner tube jacket temperature (°C),OPC LED temperature (°C),internal box temperature (°C),relative humidity of the measurement (%),span deviation,mass concentration of particles derived from Lorenz-Mie calculation of OPC scattering (μg/m³),mass concentration of particles derived from Lorenz-Mie calculation of OPC scattering (μg/m³),mass concentration of particles derived from Lorenz-Mie calculation of OPC scattering (μg/m³)
DateTimeUTC,F1_M11,P_M11,Q1_M11,Q2_M11,T1_M11,T2_M11,T3_M11,T4_M11,T5_M11,U1_M11,ZSPAN_M11,X2_M11,X0_M11,X1_M11
2024-06-09 06:00:00,SystemResetWarning,0831.3,4.99,000.00,030.8,030.1,000.0,039.2,032.5,028.0,0000.0,0003.66,0008.37,0002.90
2024-06-09 06:01:00,SystemResetWarning,0831.3,5.00,000.00,030.8,030.1,000.0,039.2,032.5,027.8,0000.0,0003.68,0008.44,0002.94
2024-06-09 06:02:00,SystemResetWarning,0831.4,4.99,000.00,030.8,030.1,000.0,039.2,032.5,028.0,0000.0,0003.73,0009.12,0002.98
2024-06-09 06:03:00,SystemResetWarning,0831.3,5.00,000.00,030.8,030.1,000.0,039.2,032.5,028.4,0000.0,0003.79,0009.89,0003.00
2024-06-09 06:04:00,SystemResetWarning,0831.3,5.00,000.00,030.8,030.1,000.0,039.3,032.5,028.2,0000.0,0003.79,0009.71,0003.03
2024-06-09 06:05:00,SystemResetWarning,0831.3,5.00,000.00,030.8,030.1,000.0,039.3,032.5,028.1,0000.0,0003.82,0009.80,0003.06
2024-06-09 06:06:00,SystemResetWarning,0831.3,5.00,000.00,030.8,030.1,000.0,039.3,032.5,028.4,0000.0,0003.89,0010.00,0003.07
2024-06-09 06:07:00,SystemResetWarning,0831.3,5.00,000.00,030.8,030.1,000.0,039.3,032.5,028.7,0000.0,0003.92,0010.09,0003.09
2024-06-09 06:08:00,SystemResetWarning,0831.3,5.00,000.00,030.8,030.1,000.0,039.3,032.5,029.1,0000.0,0003.98,0010.27,0003.13
2024-06-09 06:09:00,SystemResetWarning,0831.3,5.00,000.00,030.8,030.1,000.0,039.3,032.5,029.6,0000.0,0004.09,0010.87,0003.19
2024-06-09 06:10:00,SystemResetWarning,0831.3,5.00,000.00,030.8,030.1,000.0,039.3,032.5,029.8,0000.0,0004.18,0011.03,0003.27
2024-06-09 06:11:00,SystemResetWarning,0831.3,5.00,000.00,030.8,030.1,000.0,039.3,032.5,030.2,0000.0,0004.28,0010.64,0003.35
2024-06-09 06:12:00,SystemResetWarning,0831.3,5.00,000.00,030.8,030.1,000.0,039.3,032.5,030.5,0000.0,0004.42,0011.19,0003.46
2024-06-09 06:13:00,SystemResetWarning,0831.3,5.00,000.00,030.8,030.1,000.0,039.3,032.5,030.4,0000.0,0004.54,0011.45,0003.56
2024-06-09 06:14:00,SystemResetWarning,0831.3,4.99,000.00,030.8,030.1,000.0,039.3,032.5,030.5,0000.0,0004.64,0010.79,0003.65
2024-06-09 06:15:00,SystemResetWarning,0831.3,5.00,000.00,030.8,030.0,000.0,039.3,032.4,030.5,0000.0,0004.75,0010.99,0003.74
2024-06-09 06:16:00,SystemResetWarning,0831.3,5.00,000.00,030.8,030.1,000.0,039.3,032.5,030.4,0000.0,0004.85,0011.22,0003.84
2024-06-09 06:17:00,SystemResetWarning,0831.3,5.00,000.00,030.8,030.0,000.0,039.3,032.5,030.4,0000.0,0004.93,0012.18,0003.93
2024-06-09 06:18:00,SystemResetWarning,0831.2,5.00,000.00,030.8,030.0,000.0,039.3,032.5,030.4,0000.0,0005.05,0013.01,0004.01
2024-06-09 06:19:00,SystemResetWarning,0831.2,5.00,000.00,030.8,030.0,000.0,039.3,032.5,030.5,0000.0,0005.11,0013.05,0004.08
2024-06-09 06:20:00,SystemResetWarning,0831.2,4.99,000.00,030.8,030.0,000.0,039.3,032.5,030.6,0000.0,0005.19,0012.75,0004.13
2024-06-09 06:21:00,SystemResetWarning,0831.2,4.99,000.00,030.8,030.0,000.0,039.3,032.5,031.0,0000.0,0005.30,0012.96,0004.18
2024-06-09 06:22:00,SystemResetWarning,0831.2,5.00,000.00,030.8,030.0,000.0,039.3,032.5,031.1,0000.0,0005.32,0012.90,0004.22
2024-06-09 06:23:00,SystemResetWarning,0831.2,5.00,000.00,030.8,030.0,000.0,039.3,032.4,031.1,0000.0,0005.36,0012.91,0004.26
2024-06-09 06:24:00,SystemResetWarning,0831.2,5.02,000.00,030.8,030.0,000.0,039.3,032.5,031.1,0000.0,0005.44,0012.70,0004.30
2024-06-09 06:25:00,SystemResetWarning,0831.2,4.99,000.00,030.8,030.0,000.0,039.3,032.5,031.0,0000.0,0005.45,0012.30,0004.34
2024-06-09 06:26:00,SystemResetWarning,0831.3,4.99,000.00,030.8,030.0,000.0,039.3,032.5,031.1,0000.0,0005.50,0012.48,0004.36
2024-06-09 06:27:00,SystemResetWarning,0831.2,5.00,000.00,030.8,030.0,000.0,039.3,032.5,031.1,0000.0,0005.56,0012.54,0004.38
2024-06-09 06:28:00,SystemResetWarning,0831.2,5.01,000.00,030.8,030.0,000.0,039.3,032.5,031.3,0000.0,0005.64,0011.97,0004.44
2024-06-09 06:29:00,SystemResetWarning,0831.2,4.99,000.00,030.8,030.0,000.0,039.3,032.5,031.4,0000.0,0005.71,0011.43,0004.50
2024-06-09 06:30:00,SystemResetWarning,0831.2,4.99,000.00,030.8,030.0,000.0,039.3,032.5,031.5,0000.0,0005.79,0011.52,0004.56
2024-06-09 06:31:00,SystemResetWarning,0831.1,5.00,000.00,030.8,030.0,000.0,039.3,032.5,031.5,0000.0,0005.84,0011.62,0004.62
2024-06-09 06:32:00,SystemResetWarning,0831.1,5.00,000.00,030.8,030.0,000.0,039.3,032.5,031.4,0000.0,0005.88,0011.61,0004.70
2024-06-09 06:33:00,SystemResetWarning,0831.1,5.00,000.00,030.8,030.0,000.0,039.3,032.5,031.4,0000.0,0005.93,0011.96,0004.75
2024-06-09 06:34:00,SystemResetWarning,0831.1,5.01,000.00,030.8,030.0,000.0,039.3,032.5,031.3,0000.0,0005.99,0012.47,0004.80
2024-06-09 06:35:00,SystemResetWarning,0831.0,5.00,000.00,030.8,030.0,000.0,039.3,032.4,031.2,0000.0,0006.03,0012.36,0004.84
2024-06-09 06:36:00,SystemResetWarning,0831.0,5.00,000.00,030.8,030.0,000.0,039.3,032.5,031.1,0000.0,0006.08,0012.37,0004.88
2024-06-09 06:37:00,SystemResetWarning,0830.9,5.00,000.00,030.8,030.0,000.0,039.3,032.5,030.8,0000.0,0006.11,0012.20,0004.93
2024-06-09 06:38:00,SystemResetWarning,0830.9,5.00,000.00,030.8,030.0,000.0,039.3,032.5,030.5,0000.0,0006.14,0012.29,0004.95
2024-06-09 06:39:00,SystemResetWarning,0830.9,5.00,000.00,030.8,030.0,000.0,039.3,032.5,030.2,0000.0,0006.06,0012.22,0004.95
2024-06-09 06:40:00,SystemResetWarning,0830.9,5.00,000.00,030.8,030.1,000.0,039.3,032.5,029.9,0000.0,0005.99,0012.29,0004.90
2024-06-09 06:41:00,SystemResetWarning,0830.9,5.00,000.00,030.8,030.1,000.0,039.3,032.5,029.3,0000.0,0005.89,0012.83,0004.83
2024-06-09 06:42:00,SystemResetWarning,0830.9,5.00,000.00,030.8,030.1,000.0,039.3,032.5,029.0,0000.0,0005.77,0012.68,0004.71
2024-06-09 06:43:00,SystemResetWarning,0830.9,5.00,000.00,030.8,030.1,000.0,039.3,032.5,028.4,0000.0,0005.57,0012.53,0004.54
2024-06-09 06:44:00,SystemResetWarning,0830.9,4.99,000.00,030.8,030.1,000.0,039.3,032.5,028.0,0000.0,0005.39,0012.50,0004.37
2024-06-09 06:45:00,SystemResetWarning,0830.8,4.99,000.00,030.8,030.1,000.0,039.3,032.5,027.8,0000.0,0005.17,0011.53,0004.19
2024-06-09 06:46:00,SystemResetWarning,0830.8,5.01,000.00,030.8,030.1,000.0,039.3,032.5,027.8,0000.0,0004.95,0011.18,0004.02
2024-06-09 06:47:00,SystemResetWarning,0830.8,5.01,000.00,030.8,030.1,000.0,039.3,032.5,027.8,0000.0,0004.79,0010.96,0003.87
2024-06-09 06:48:00,SystemResetWarning,0830.7,5.00,000.00,030.8,030.1,000.0,039.3,032.5,027.8,0000.0,0004.60,0010.90,0003.71
2024-06-09 06:49:00,SystemResetWarning,0830.7,4.99,000.00,030.8,030.1,000.0,039.3,032.5,027.5,0000.0,0004.32,0010.45,0003.57
2024-06-09 06:50:00,SystemResetWarning,0830.7,5.00,000.00,030.8,030.1,000.0,039.3,032.5,027.5,0000.0,0004.15,0009.91,0003.43
2024-06-09 06:51:00,SystemResetWarning,0830.6,5.01,000.00,030.8,030.1,000.0,039.3,032.5,027.2,0000.0,0004.04,0009.37,0003.34
2024-06-09 06:52:00,SystemResetWarning,0830.6,5.02,000.00,030.8,030.1,000.0,039.3,032.5,027.0,0000.0,0003.95,0008.66,0003.26
2024-06-09 06:53:00,SystemResetWarning,0830.6,4.99,000.00,030.8,030.1,000.0,039.3,032.5,026.9,0000.0,0003.89,0009.61,0003.22
2024-06-09 06:54:00,SystemResetWarning,0830.6,4.99,000.00,030.8,030.1,000.0,039.3,032.5,026.7,0000.0,0003.87,0009.70,0003.20
2024-06-09 06:55:00,SystemResetWarning,0830.6,5.00,000.00,030.8,030.1,000.0,039.3,032.5,026.4,0000.0,0003.81,0009.25,0003.18
2024-06-09 06:56:00,SystemResetWarning,0830.5,5.00,000.00,030.8,030.1,000.0,039.3,032.5,026.4,0000.0,0003.78,0009.01,0003.18
2024-06-09 06:57:00,SystemResetWarning,0830.5,5.00,000.00,030.8,030.1,000.0,039.3,032.5,026.8,0000.0,0003.82,0009.12,0003.19
2024-06-09 06:58:00,SystemResetWarning,0830.5,5.00,000.00,030.8,030.1,000.0,039.3,032.5,027.0,0000.0,0003.82,0009.33,0003.22
2024-06-09 06:59:00,SystemResetWarning,0830.6,5.00,000.00,030.8,030.1,000.0,039.3,032.5,027.1,0000.0,0003.88,0009.37,0003.26
